WetterOnline ( http://www.wetteronline.de )

Wetter aktuell Beeskow

Aktuelles Wetter: Lindenberg b. Beeskow (104m)

6-stündlich | Neueste Meldungen
Ortszeit Temperatur Wetter
Mo, 25.06. 14:00 18.3° C wolkig
Mo, 25.06. 8:00 14.0° C bewölkt
Mo, 25.06. 2:00 12.8° C bedeckt
So, 24.06. 20:00 14.2° C bedeckt
So, 24.06. 14:00 13.0° C Sprühregen
So, 24.06. 8:00 12.0° C Sprühregen
So, 24.06. 2:00 11.5° C Regen
Sa, 23.06. 20:00 13.7° C bedeckt
Ortszeit Temperatur Wetter
Mo, 25.06. 15:40 20.0° C bedeckt
Mo, 25.06. 15:30 20.0° C wolkig
Mo, 25.06. 15:20 20.0° C wolkig
Mo, 25.06. 15:10 19.0° C wolkig
Mo, 25.06. 15:00 19.4° C leicht bewölkt
Mo, 25.06. 14:50 19.4° C wolkig
Mo, 25.06. 14:30 19.1° C leicht bewölkt
Mo, 25.06. 14:00 18.3° C wolkig
Mo, 25.06. 13:30 18.3° C wolkig
Mo, 25.06. 13:00 17.7° C wolkig
Mo, 25.06. 12:30 17.5° C wolkig
Ortszeit Relative Feuchte Sichtweite
Mo, 25.06. 14:00 60% 30 km
Mo, 25.06. 8:00 83% 15 km
Mo, 25.06. 2:00 97% 8 km
So, 24.06. 20:00 84% 50 km
So, 24.06. 14:00 92% 15 km
So, 24.06. 8:00 95% 3.0 km
So, 24.06. 2:00 95% 2.0 km
Sa, 23.06. 20:00 79% 50 km
Ortszeit Relative Feuchte Sichtweite
Mo, 25.06. 15:40 56% -
Mo, 25.06. 15:30 55% 30 km
Mo, 25.06. 15:20 55% -
Mo, 25.06. 15:10 57% -
Mo, 25.06. 15:00 55% 30 km
Mo, 25.06. 14:50 55% -
Mo, 25.06. 14:30 58% 30 km
Mo, 25.06. 14:00 60% 30 km
Mo, 25.06. 13:30 61% 30 km
Mo, 25.06. 13:00 63% 30 km
Mo, 25.06. 12:30 66% 25 km
Ortszeit Niederschlagsmenge Niederschlagsart
Mo, 25.06. 14:00 0.0 l/m2 in 6 Std. -
Mo, 25.06. 8:00 0.1 l/m2 in 12 Std. -
Mo, 25.06. 2:00 0.1 l/m2 in 6 Std. Regenschauer
So, 24.06. 20:00 0.8 l/m2 in 12 Std. Regenschauer
So, 24.06. 14:00 0.6 l/m2 in 6 Std. Sprühregen
So, 24.06. 8:00 6 l/m2 in 12 Std. Regen
So, 24.06. 2:00 2 l/m2 in 6 Std. Regenschauer
Sa, 23.06. 20:00 0.4 l/m2 in 12 Std. Schauer
Ortszeit Niederschlagsmenge Niederschlagsart
Mo, 25.06. 15:40 keine Meldung -
Mo, 25.06. 15:30 0.0 l/m2 in 1 Std. -
Mo, 25.06. 15:20 keine Meldung -
Mo, 25.06. 15:10 keine Meldung -
Mo, 25.06. 15:00 0.0 l/m2 in 1 Std. -
Mo, 25.06. 14:50 keine Meldung -
Mo, 25.06. 14:30 0.0 l/m2 in 1 Std. -
Mo, 25.06. 14:00 0.0 l/m2 in 1 Std. -
Mo, 25.06. 13:30 0.0 l/m2 in 1 Std. -
Mo, 25.06. 13:00 0.0 l/m2 in 1 Std. -
Mo, 25.06. 12:30 0.0 l/m2 in 1 Std. -
Ortszeit Stärke Spitze Richtung
km/h Bft. km/h Grad Sektor
Mo, 25.06. 14:00 14 3 32 270° W
Mo, 25.06. 8:00 7 2 14 280° W
Mo, 25.06. 2:00 6 1 31 290° W
So, 24.06. 20:00 14 3 32 270° W
So, 24.06. 14:00 22 4 36 270° W
So, 24.06. 8:00 18 3 36 290° W
So, 24.06. 2:00 15 3 31 300° NW
Sa, 23.06. 20:00 18 3 50 290° W
Ortszeit Stärke Spitze Richtung
km/h Bft. km/h Grad Sektor
Mo, 25.06. 15:40 15 3 - 300° NW
Mo, 25.06. 15:30 14 3 25 300° NW
Mo, 25.06. 15:20 14 3 - 300° NW
Mo, 25.06. 15:10 15 3 - 280° W
Mo, 25.06. 15:00 14 3 32 290° W
Mo, 25.06. 14:50 14 3 - 290° W
Mo, 25.06. 14:30 19 3 33 270° W
Mo, 25.06. 14:00 14 3 32 270° W
Mo, 25.06. 13:30 14 3 25 280° W
Mo, 25.06. 13:00 15 3 31 260° W
Mo, 25.06. 12:30 17 3 30 280° W
Ortszeit Untergrenze Bedeckung Gattung
total tief tief mittel hoch
Mo, 25.06. 14:00 960 m 5/8 5/8 Cu - -
Mo, 25.06. 8:00 360 m 7/8 7/8 Cu - -
Mo, 25.06. 2:00 210 m 8/8 7/8 St - -
So, 24.06. 20:00 390 m 8/8 7/8 Cu - -
So, 24.06. 14:00 180 m 8/8 7/8 St - -
So, 24.06. 8:00 90 m 8/8 7/8 St - -
So, 24.06. 2:00 90 m 8/8 7/8 St - -
Sa, 23.06. 20:00 1200 m 8/8 7/8 Cu - -
Ortszeit Bedeckungsgrad in Achtel und Wolkenuntergrenze
Mo, 25.06. 15:40 9 9 9
Mo, 25.06. 15:30 4(1020m) 7(9000m)
Mo, 25.06. 15:20 4(1080m) 6(9000m)
Mo, 25.06. 15:10 5(1080m) 7(9000m)
Mo, 25.06. 15:00 3(1110m) 5(8700m) 7(9000m)
Mo, 25.06. 14:50 5(1110m) 5(8700m) 6(9000m)
Mo, 25.06. 14:30 4(1080m)
Mo, 25.06. 14:00 5(960m) 4(1200m)
Mo, 25.06. 13:30 5(960m) 4(1170m)
Mo, 25.06. 13:00 5(810m) 7(1140m)
Mo, 25.06. 12:30 4(690m) 3(1080m)
Ortszeit Luftdruck NN (hPa) Tendenz (hPa in 3 Std.)
Mo, 25.06. 14:00 1021 + 0,2
Mo, 25.06. 8:00 1020 + 1,2
Mo, 25.06. 2:00 1019 + 0,1
So, 24.06. 20:00 1018 - 0,3
So, 24.06. 14:00 1019 0,0
So, 24.06. 8:00 1018 0,0
So, 24.06. 2:00 1019 - 0,4
Sa, 23.06. 20:00 1019 + 0,6
Ortszeit Luftdruck NN (hPa) Tendenz (hPa in 3 Std.)
Mo, 25.06. 15:40 1020 keine Meldung
Mo, 25.06. 15:30 1020 - 0,4
Mo, 25.06. 15:20 1020 keine Meldung
Mo, 25.06. 15:10 1020 keine Meldung
Mo, 25.06. 15:00 1020 - 0,2
Mo, 25.06. 14:50 1020 keine Meldung
Mo, 25.06. 14:30 1021 0,0
Mo, 25.06. 14:00 1021 + 0,2
Mo, 25.06. 13:30 1021 + 0,3
Mo, 25.06. 13:00 1021 + 0,4
Mo, 25.06. 12:30 1021 + 0,8
Ortszeit Schneehöhe (cm)
Mo, 25.06. 14:00 0
Mo, 25.06. 8:00 0
Mo, 25.06. 2:00 0
So, 24.06. 20:00 0
So, 24.06. 14:00 0
So, 24.06. 8:00 0
So, 24.06. 2:00 0
Sa, 23.06. 20:00 0
Ortszeit Schneehöhe (cm)
Mo, 25.06. 15:40 -
Mo, 25.06. 15:30 -
Mo, 25.06. 15:20 -
Mo, 25.06. 15:10 -
Mo, 25.06. 15:00 -
Mo, 25.06. 14:50 -
Mo, 25.06. 14:30 -
Mo, 25.06. 14:00 0
Mo, 25.06. 13:30 -
Mo, 25.06. 13:00 -
Mo, 25.06. 12:30 -
Link zu dieser Seite / Seite empfehlen

Das Wetter in ...